Theta_e
304 304 303 303 303 303 303 303 303 303 303 303 303 302 302 301 301 300 300 300 300 301 301 301 301 301 301 301 300 300 299 299 300 300 300 299 299 298 297 296 296 296
303 303 303 302 301 301 301 301 302 302 303 303 303 303 303 302 301 301 300 300 300 300 300 300 300 301 301 301 300 300 299 299 299 299 299 299 298 298 297 296 296 295
302 302 301 301 300 300 300 300 300 301 301 302 302 303 303 303 302 302 301 300 300 300 300 300 300 300 300 300 300 300 299 299 299 299 298 298 298 298 297 297 296 296
299 299 299 299 299 299 299 299 299 299 300 300 301 301 301 302 302 303 302 302 301 301 300 300 300 299 299 299 299 299 299 299 299 298 298 298 298 297 297 297 297 296
296 297 297 297 298 298 298 298 298 298 299 299 299 299 300 300 300 301 302 302 302 302 301 300 300 299 298 298 298 299 299 299 299 298 298 298 297 297 297 297 297 296
294 295 295 295 296 297 297 297 298 298 298 298 298 298 298 298 298 299 300 300 301 301 301 300 300 299 298 298 298 298 298 298 299 298 298 298 298 298 297 296 296 296
292 292 293 293 294 294 295 296 296 297 297 297 297 297 297 297 297 297 297 298 299 300 300 300 300 300 299 298 297 297 297 297 298 298 298 298 298 298 298 297 296 296
290 290 290 290 291 291 292 293 294 294 294 295 295 295 295 296 296 296 296 296 297 297 298 299 300 300 299 298 297 297 296 296 296 297 297 298 298 298 298 298 297 296
289 289 289 289 289 289 289 289 290 291 291 292 292 292 292 293 293 294 294 295 296 296 296 297 297 298 299 298 297 296 296 296 295 295 296 296 297 297 297 297 297 297
289 288 288 288 287 287 287 287 287 288 288 289 289 290 290 290 290 290 291 292 292 294 294 295 295 296 297 298 298 297 296 296 295 295 295 295 296 296 297 297 297 296
288 288 288 287 287 287 287 286 286 286 286 287 287 287 288 288 289 289 289 289 289 290 291 291 292 293 293 295 296 296 297 297 296 296 296 295 295 295 295 296 296 296
288 287 287 287 287 287 287 286 286 286 286 286 286 286 286 286 287 287 287 288 288 288 288 288 289 290 290 291 292 293 294 295 296 296 296 296 296 296 295 295 295 295
287 287 287 287 287 287 287 287 287 287 286 286 286 286 286 286 286 286 286 286 287 287 287 287 287 288 288 289 289 290 291 292 293 294 295 296 296 296 296 295 295 294
287 287 287 287 287 287 287 287 287 287 287 287 287 287 287 286 286 286 286 286 286 286 286 286 287 287 287 287 288 288 288 289 289 290 291 292 294 295 296 296 296 295
287 287 287 287 287 287 287 287 287 287 287 287 287 287 287 287 287 287 286 286 286 286 286 286 286 286 286 286 286 287 287 287 287 288 288 289 290 291 292 294 295 295
288 288 288 288 287 287 287 287 287 287 287 287 287 287 287 287 287 287 287 287 286 286 286 286 286 286 286 286 286 286 286 286 286 286 286 287 287 288 289 290 291 292
288 288 288 288 288 288 288 288 288 288 287 287 287 287 287 287 287 287 287 287 287 287 286 286 286 286 286 286 286 286 286 286 286 286 286 286 286 286 287 287 287 288
288 288 288 288 288 288 288 288 288 288 288 288 288 288 287 287 287 287 287 287 287 287 287 287 287 286 286 286 286 286 286 286 286 286 286 286 286 286 286 286 286 286
287 287 287 288 288 288 288 288 288 288 288 288 288 288 288 288 288 287 287 287 287 287 287 287 287 287 287 286 286 286 286 286 286 286 286 286 286 286 286 285 285 285
287 287 287 287 287 287 287 287 287 287 288 288 287 287 287 287 287 287 287 287 287 287 287 287 287 287 287 287 286 286 286 286 286 286 286 286 286 286 286 286 285 285
286 285 285 285 285 285 285 285 285 285 285 285 285 285 285 286 286 286 286 287 287 287 287 287 287 287 287 287 287 287 286 286 286 286 286 286 286 286 286 286 286 286
284 284 283 283 283 283 283 283 283 282 282 282 282 283 283 284 284 284 284 285 285 285 285 286 287 287 287 287 287 287 286 286 286 286 286 286 286 286 286 286 286 286
282 282 281 281 281 281 281 281 281 280 280 280 280 280 281 282 282 282 283 283 283 284 284 284 285 286 286 286 286 286 286 286 286 286 286 286 286 286 286 286 286 286
281 280 279 279 279 279 279 279 279 279 278 278 278 278 279 279 280 280 280 281 281 282 282 283 283 285 285 286 286 286 286 286 285 285 285 285 286 286 286 286 286 286
280 279 278 278 278 278 278 277 278 278 277 277 276 276 277 277 277 277 278 279 280 280 280 281 281 283 284 284 284 285 285 285 284 283 283 284 285 286 286 286 286 286
279 278 278 278 278 277 277 277 276 276 276 275 275 274 275 275 275 275 275 276 277 278 278 279 280 281 282 282 282 283 283 284 283 282 282 283 284 285 285 285 285 285
Wind_Speed
23 23 23 23 23 23 23 24 24 23 22 21 19 18 16 16 15 16 19 21 21 19 16 15 15 15 16 16 17 18 21 24 29 33 38 41 42 43 44 46 48 49
22 22 22 22 22 22 22 22 23 22 22 22 21 20 18 17 16 16 17 19 21 20 18 16 15 15 16 16 16 17 18 20 23 26 31 37 39 41 42 44 46 47
20 20 21 22 22 22 23 23 22 21 21 20 20 19 18 18 17 16 16 17 19 20 19 18 16 16 16 16 17 18 18 19 19 20 24 29 33 37 40 41 43 45
18 18 19 20 21 23 23 23 22 21 20 20 19 19 18 17 17 17 17 17 17 17 18 18 18 17 17 17 18 19 19 20 19 19 22 25 27 32 35 38 41 43
16 16 16 17 18 20 21 22 22 21 20 20 20 19 19 19 18 18 18 18 18 18 17 16 16 17 17 18 18 19 20 21 21 20 22 23 24 27 31 34 38 40
15 15 15 15 15 16 17 18 20 20 20 20 20 20 21 20 20 20 19 19 19 19 18 18 17 16 15 16 18 19 20 21 21 21 22 24 24 25 27 30 34 38
17 16 16 15 15 14 15 16 17 18 19 19 20 21 21 21 21 21 21 20 19 19 19 19 19 19 17 16 17 18 19 20 21 21 23 24 24 25 26 27 30 33
19 18 18 17 16 15 15 15 16 17 18 19 20 20 21 22 22 22 21 21 21 20 19 19 19 19 19 19 19 18 18 19 19 21 22 23 24 25 26 26 28 30
19 19 19 19 18 17 16 16 16 16 17 19 20 21 22 23 23 23 23 23 22 22 21 20 20 19 19 19 20 20 21 20 20 20 22 22 24 25 26 26 27 29
19 20 20 20 20 19 19 18 17 17 17 17 19 20 22 23 24 25 24 24 24 24 23 23 21 20 19 19 19 20 21 22 22 22 22 23 23 24 25 26 27 29
20 20 20 20 20 20 20 20 20 19 19 18 18 18 19 20 22 24 25 25 25 24 24 24 23 21 20 19 19 19 20 21 22 24 24 25 25 25 25 26 27 29
22 22 22 23 22 22 23 23 23 23 22 21 21 20 19 19 19 20 22 24 25 25 25 25 24 23 22 21 20 19 19 20 21 22 23 25 26 27 27 27 27 28
23 25 26 26 27 27 26 26 26 26 26 26 25 25 24 23 22 21 21 22 23 25 26 26 27 26 25 24 23 22 22 21 21 21 22 23 24 25 27 28 29 30
24 26 27 28 30 30 30 31 30 30 30 30 29 29 29 28 28 26 25 23 23 23 24 26 27 27 27 26 26 25 25 24 24 24 23 24 23 24 24 26 28 30
26 27 28 29 30 32 33 33 34 34 34 34 33 33 33 33 33 33 32 30 28 26 25 25 26 26 26 27 27 27 27 27 27 27 26 26 26 25 25 25 26 27
28 29 30 31 32 33 34 35 36 37 37 38 38 38 38 38 38 38 37 37 36 34 32 30 28 27 26 26 26 27 27 28 29 29 29 29 29 28 28 27 26 26
29 31 32 34 35 36 37 38 39 40 40 41 41 42 42 42 42 43 42 42 41 41 39 37 35 32 30 28 27 27 27 29 30 30 30 30 31 31 31 29 28 27
31 32 33 35 36 38 39 41 42 43 44 44 45 45 45 45 46 46 46 46 47 46 45 44 42 40 37 34 32 31 30 30 31 32 32 32 32 32 32 32 31 30
35 36 37 38 39 40 41 43 45 46 48 49 50 50 49 49 48 48 48 48 49 50 50 50 48 46 44 42 40 37 35 34 34 34 34 34 34 33 33 33 33 32
40 41 43 44 45 45 45 46 48 49 51 52 53 53 53 53 52 52 51 50 50 51 52 52 52 51 50 49 48 45 42 40 39 38 38 38 36 35 35 34 33 33
42 43 44 46 46 46 46 48 49 50 51 53 53 53 54 54 54 54 54 54 53 53 53 53 53 52 52 53 53 52 51 48 46 45 44 42 41 39 38 36 35 34
41 42 44 45 45 45 45 47 48 49 51 52 52 54 56 56 56 56 56 56 56 55 56 56 55 54 53 54 54 55 55 55 54 52 50 48 46 44 42 40 38 37
41 42 43 43 43 44 46 48 49 50 52 52 52 54 57 59 60 60 59 59 59 59 59 59 59 57 56 55 55 54 55 56 57 56 55 54 52 50 47 44 42 40
44 44 44 45 46 48 50 52 54 54 55 54 53 55 58 60 62 62 63 63 62 62 62 61 62 62 60 58 57 56 56 57 57 57 56 57 57 55 53 49 46 44
50 49 50 50 52 53 54 55 56 57 56 55 54 54 56 59 60 60 61 63 63 64 64 64 65 66 64 63 61 60 58 58 57 56 56 58 59 59 58 55 50 47
52 53 53 54 54 55 55 56 56 56 55 54 52 52 53 55 56 56 58 60 61 62 63 64 66 67 67 66 64 63 62 62 59 56 55 57 59 59 58 57 55 51
Wind_Direction
27 28 26 24 22 20 19 16 14 12 8 4 358 350 338 323 309 299 298 300 302 302 300 296 291 287 284 279 276 271 266 261 257 254 253 253 253 252 250 248 246 246
19 17 14 11 10 10 10 9 7 5 4 2 360 356 351 342 329 314 303 299 299 299 298 293 287 283 280 277 275 273 270 266 262 258 255 255 255 254 253 251 248 246
13 8 5 2 2 2 3 2 1 359 357 355 354 353 352 349 343 334 323 314 308 305 302 297 290 284 279 275 272 271 270 268 266 263 260 258 257 256 256 254 252 249
13 7 3 359 357 356 356 356 354 353 352 349 348 348 347 346 345 342 337 330 323 317 312 305 296 290 284 278 274 272 271 269 268 265 263 261 259 258 258 256 255 254
12 8 3 357 354 352 349 348 347 347 346 345 344 343 343 343 342 341 339 335 333 329 324 316 305 295 289 284 279 275 272 270 269 267 265 263 261 261 260 259 258 257
10 5 1 357 353 349 344 342 340 340 340 340 340 339 339 340 340 339 338 336 335 333 330 326 319 310 299 291 285 280 277 274 271 268 266 265 263 262 262 262 261 260
6 3 1 357 352 346 341 337 334 332 332 333 333 333 333 334 335 336 336 335 335 333 330 328 325 321 315 305 295 288 284 280 277 273 269 268 266 264 263 264 264 263
1 360 359 358 354 349 343 338 333 331 329 329 329 329 329 329 329 329 330 331 331 331 330 328 325 323 320 314 306 300 294 288 282 278 274 272 270 268 265 265 266 267
356 355 355 355 353 352 348 344 339 334 331 329 329 329 330 330 329 328 326 324 324 324 324 324 323 321 319 316 312 307 303 298 292 285 280 276 274 272 270 268 267 268
348 348 349 350 349 349 348 347 344 341 338 333 330 329 328 329 329 329 329 326 324 322 320 320 320 318 316 314 312 309 305 302 299 294 290 285 280 277 273 271 269 269
339 340 340 341 342 342 342 343 342 341 340 337 334 330 327 325 325 325 326 326 326 324 322 320 319 317 315 313 310 307 305 303 301 298 296 293 290 286 281 276 272 270
331 332 332 331 331 332 333 334 334 334 334 333 332 331 329 325 321 319 319 319 320 321 320 319 318 317 317 315 313 309 305 303 301 299 297 296 294 293 290 285 280 275
324 325 326 325 324 323 324 324 324 324 324 324 324 324 324 323 321 318 315 313 312 313 314 315 315 315 315 315 315 313 309 306 303 300 298 297 295 294 292 290 286 282
316 317 318 318 317 318 317 317 316 316 315 316 316 316 316 316 316 315 313 311 309 308 307 309 310 311 313 313 312 312 311 308 306 304 302 299 297 295 293 291 288 286
314 314 313 313 312 312 312 312 312 311 311 310 310 310 310 309 309 308 308 307 306 305 303 302 302 304 307 309 309 310 309 308 307 305 304 302 300 298 296 293 292 289
313 313 313 312 311 310 310 310 309 309 309 308 308 308 307 307 306 304 303 303 303 302 301 300 298 298 299 300 302 304 305 306 305 304 303 302 301 299 298 297 295 293
308 309 309 310 310 311 310 310 309 308 308 307 307 307 306 306 304 302 301 301 300 300 299 298 296 295 295 295 295 296 298 299 300 300 301 300 300 299 298 298 297 296
302 302 302 303 304 306 306 307 307 306 306 306 305 305 305 303 302 301 300 300 299 298 297 296 295 293 292 292 291 290 291 292 293 295 295 296 297 298 298 298 298 297
303 303 304 304 304 304 304 304 304 304 304 304 303 303 302 301 299 298 296 296 296 296 296 295 294 292 292 291 289 287 287 287 288 289 290 291 292 293 295 296 297 298
307 307 307 307 307 307 306 305 304 303 303 303 303 302 301 300 298 297 295 293 292 292 292 292 291 291 291 292 291 289 287 286 285 284 284 285 286 287 289 291 293 296
308 308 307 307 307 306 305 304 303 302 302 302 301 300 299 298 297 296 295 293 292 290 289 288 287 287 288 289 290 290 289 288 286 284 282 281 281 282 283 285 287 290
306 305 304 304 303 302 300 299 299 299 299 299 298 297 297 296 295 294 293 292 292 290 289 287 286 285 284 284 285 286 287 288 287 286 284 282 281 280 279 280 281 283
304 302 302 301 299 296 295 295 295 295 295 295 294 293 293 292 292 291 290 289 288 287 286 286 285 284 283 282 281 281 282 283 284 285 284 283 282 281 279 278 277 278
305 303 301 299 296 294 294 294 295 295 294 294 292 291 290 291 290 290 289 288 286 285 283 282 281 281 280 280 279 278 278 279 280 281 282 282 282 281 279 278 276 275
305 304 302 301 299 298 297 297 297 296 295 294 291 290 289 289 289 288 287 287 286 285 284 282 281 280 279 277 277 277 276 277 278 278 278 278 279 280 279 278 277 274
306 306 305 304 302 301 300 298 297 296 295 294 292 290 288 287 286 285 284 284 284 283 282 282 281 280 279 278 277 276 275 276 276 276 276 276 276 276 277 277 276 275